Regional Weather Roundup
Issued by NWS

Home | Current Version | Previous Version | Text Only | Print | Product List | Glossary Off
Versions: 1 2 3 4 5 6 7 8 9 10 11 12 13 14 15 16 17 18 19 20 21 22 23 24 25 26 27 28 29 30 31 32 33 34 35 36 37 38 39 40 41 42 43 44 45 46 47 48 49 50

000
ASUS43 KDMX 200506
RWRIA

WEATHER ROUNDUP FOR IOWA
NATIONAL WEATHER SERVICE DES MOINES IA
1100 PM CST THU JAN 19 2017

NOTE: "FAIR" INDICATES FEW OR NO CLOUDS BELOW 12,000 FEET WITH NO
SIGNIFICANT WEATHER AND/OR OBSTRUCTIONS TO VISIBILITY.

* - THESE STATIONS ARE NOT NWS STATIONS...THUS NOT UNDER NWS
QUALITY CONTROL.  THEY ALSO DO NOT REPORT WEATHER SUCH
AS PRECIPITATION OR FOG.

IAZ001>003-012>014-020>022-031>034-043>046-200600-
   NORTHWEST IOWA

CITY           SKY/WX    TMP DP  RH WIND       PRES   REMARKS
CARROLL *      FOG       36  34  93 SE5       29.63F VSB 1/4 WCI  32
CHEROKEE *     CLOUDY    36  36 100 S3        29.62F FOG
DENISON *      CLOUDY    37  37 100 SE5       29.60F FOG     WCI  34
LE MARS *      CLOUDY    37  37 100 SE8       29.62S FOG     WCI  31
ORANGE CITY *  CLOUDY    36  36 100 S5        29.61S FOG     WCI  32
SHELDON *      FOG       36  36 100 SE7       29.60F VSB 3/4 WCI  30
SIOUX CITY     FOG       37  37 100 S5        29.61F VSB 1/4 WCI  34
SPENCER        FOG       35  35 100 SE6       29.62F VSB 3/4 WCI  30
STORM LAKE *   FOG       34  34 100 SE6       29.62F VSB<1/4 WCI  29
$$

IAZ055>058-069>071-079>083-090>094-200600-
   SOUTHWEST IOWA

CITY           SKY/WX    TMP DP  RH WIND       PRES   REMARKS
ATLANTIC *     CLOUDY    37  37 100 CALM      29.64S FOG
AUDUBON *      FOG       36  34  93 CALM      29.64F VSB 1/2
CLARINDA *     FOG       39  39 100 CALM      29.66S VSB 1/4
COUNCIL BLFS * FOG       37  37 100 SE3       29.62F VSB<1/4
CRESTON *      FOG       37  37 100 NE3       29.65S VSB 1/2
HARLAN  *      CLOUDY    37  37 100 CALM      29.66F FOG
LAMONI         FOG       39  39 100 NE3       29.63F VSB 1/4
RED OAK *      FOG       39  39 100 CALM      29.64S VSB 3/4
SHENANDOAH *   FOG       39  39 100 CALM      29.65S VSB 1/4
$$

IAZ047>049-059>061-072>074-084-200600-
   CENTRAL IOWA

CITY           SKY/WX    TMP DP  RH WIND       PRES   REMARKS
AMES           FOG       35  35 100 CALM      29.65F VSB 1/4
ANKENY *       FOG       36  36 100 CALM      29.66F VSB<1/4
BOONE *        FOG       34  34 100 CALM      29.64F VSB 1/4
CHARITON *     FOG       37  37 100 CALM      29.63F VSB<1/4
DES MOINES     FOG       38  37  97 CALM      29.64F VSB 1/8
GRINNELL*      FOG       36  36  99 E5        29.66F VSB 1/4 WCI  32
KNOXVILLE *    FOG       37  37 100 CALM      29.63F VSB 1/4
MARSHALLTOWN   FOG       36  36 100 E5        29.65F VSB 1/4 WCI  32
NEWTON *       FOG       36  36 100 SE5       29.64F VSB 1/4 WCI  32
PELLA *        FOG       37  36  99 CALM      29.66F VSB 1/2
PERRY *        FOG       35  35  99 CALM      29.65F VSB 1/4
$$

IAZ004>006-015-016-023>025-035-036-200600-
   NORTH CENTRAL IOWA

CITY           SKY/WX    TMP DP  RH WIND       PRES   REMARKS
ALGONA *       FOG       36  36 100 S9        29.63F VSB 3/4 WCI  29
CLARION *      FOG       34  34 100 SE6       29.65S VSB 1   WCI  29
ESTHERVILLE    FOG       33  33 100 S7        29.61F VSB 1/4 WCI  27
FORT DODGE *   CLOUDY    36  34  93 SE3       29.65F VSB 3/4
MASON CITY     CLOUDY    34  34 100 SE8       29.66F FOG     WCI  27
FOREST CITY *  FOG       34  34 100 SE6       29.65F VSB 1/2 WCI  29
WEBSTER CITY * FOG       34  34 100 S6        29.63F VSB 1/4 WCI  29
IOWA FALLS *   FOG       35  34  97 E5        29.66F VSB 1/4 WCI  31
$$

IAZ007>011-017>019-026>030-037>042-050>054-066-200600-
   NORTHEAST IOWA

CITY           SKY/WX    TMP DP  RH WIND       PRES   REMARKS
CEDAR RAPIDS   FOG       36  35  96 E5        29.66S VSB 1/2 WCI  32
CHARLES CITY * FOG       34  34 100 SE7       29.67F VSB 1/4 WCI  28
CLINTON *      CLOUDY    37  37 100 E14       29.68F FOG     WCI  28
DECORAH *      MIX PCPN  36  34  93 E8        29.68F VSB 1   WCI  29
DUBUQUE        FOG       36  36 100 E10       29.69S VSB 1   WCI  28
MONTICELLO *   CLOUDY    37  37 100 E8        29.68S FOG     WCI  31
OELWEIN *      FOG       36  34  93 E9        29.67F VSB 3/4 WCI  29
WATERLOO       FOG       35  34  96 E6        29.67F VSB 1/4 WCI  30
$$

IAZ064-065-067-068-078-200600-
   EAST CENTRAL IOWA

CITY           SKY/WX    TMP DP  RH WIND       PRES   REMARKS
DAVENPORT      FOG       37  36  96 E10       29.68F VSB 1   WCI  30
IOWA CITY      CLOUDY    38  37  97 E6        29.68F FOG     WCI  33
MUSCATINE *    CLOUDY    39  37  93 E6        29.66F FOG     WCI  35
QUAD CITIES    CLOUDY    38  36  92 E9        29.66F FOG     WCI  31
$$

IAZ062-063-075>077-085>089-095>099-200600-
   SOUTHEAST IOWA

CITY           SKY/WX    TMP DP  RH WIND       PRES   REMARKS
BURLINGTON     FOG       39  39 100 E7        29.64F VSB 1/4 WCI  34
FAIRFIELD *    FOG       37  37 100 E3        29.64F VSB<1/4
FORT MADISON * FOG       39  39 100 E5        29.65F VSB<1/4
KEOKUK *       FOG       41  41 100 CALM      29.64S VSB<1/4
OSKALOOSA *    FOG       36  36  99 E6        29.64F VSB 1/4 WCI  31
OTTUMWA        FOG       38  38 100 E3        29.63F VSB 1/4
WASHINGTON *   FOG       37  37 100 E6        29.66F VSB<1/4 WCI  33
$$

ABBREVIATIONS USED IN REMARKS
   TC - TEMPERATURES IN CELSIUS
  WCI - WIND CHILL INDEX
   HX - HEAT INDEX
  VSB - VISIBILITY
$$





USA.gov is the U.S. government's official web portal to all federal, state and local government web resources and services.